Location: Unspecified
(0.0000°N, 0.0000°E)
Time: 20:38:18
(UTC+00:00)

CZ-3C DEB - Pass Details

Date: 13 March 2026
Orbit: 544 x 34777 km, 21.8° (Epoch: 16 April)

Event Time Altitude Azimuth Distance (km) Brightness Sun altitude
Rises 16:23:56 0° 248° (WSW) 17,915 ? 26.3°
Reaches altitude 10° 16:44:33 10° 249° (WSW) 21,060 ? 21.2°
Maximum altitude 17:59:15 20° 254° (WSW) 30,771 ? 2.5°
Drops below altitude 10° 20:10:00 10° 263° (W) 39,376 ? -30.1°
Sets 21:33:09 0° 267° (W) 39,613 ? -50.9°
